Darstellungsparameter: Aktuell verwendete Einstellungen:
Skalierung der Graphiken ... ?
xyx+y,   Skalierungsfaktor:      Skalierung: Modus: x, Faktor: 1
Darstellungszeitraum ... ?
Vom - - bis: - -   Zeitraum: 06.10.2020 - 08.10.2020
Min/Max/Avg-Anzeige ... ?
Zeige MMA aktuell
Zeige MMA Monat
Zeige MMA alles
Zeige --A aktuell
Zeige --A Monat
Zeige --A alles
Keine MMA-Anzeige
MMA:
Average (ber die Originaldaten)
MMA-Basis: 06.10.2020 - 08.10.2020
Quicknavigation für Darstellung... ?
Tage:      1T, 2T, 3T, 5T -1T -2T -3T -5T +1T +2T +3T +5T
Wochen: 1W, 2W, 3W -1W -2W -3W +1W +2W +3W
Monate: 1M, 3M, 6M -1M -3M -6M +1M +3M +6M
Jahre:    1J, 3J, 5J, 10J -1J -3J -5J -10J +1J +3J +5J +10J
Nutze für die Darstellung ... ?
Originaldaten oder Mittelwerte auf ...
Stundenbasis Tagesbasis Wochenbasis
Monatsbasis Jahresbasis      Datenbasis: Original-Daten
Darstellen als:
Statistik (Auto) Statistik J:M      Darstellung:
Zur Graphik,    zurück zur Übersicht aller Sensoren.
 
Tabellarische Datenbersicht: ?
 
Sensor: Nr:Datum:Temp:Abs-Feuchte:Windchill:Wind:
Aussen-T/F 1 06-10-2020 00:00:00 11.8 C 10 g/m*3 11.8 C 0 km/h
2 06-10-2020 00:05:00 11.8 C 10 g/m*3 11.8 C 0 km/h
3 06-10-2020 00:10:00 11.8 C 10 g/m*3 11.8 C 0 km/h
4 06-10-2020 00:15:00 11.8 C 10 g/m*3 11.8 C 3.2 km/h
5 06-10-2020 00:20:00 11.8 C 10 g/m*3 11.8 C 0 km/h
6 06-10-2020 00:25:00 11.8 C 10 g/m*3 11.8 C 0 km/h
7 06-10-2020 00:30:00 11.7 C 9.94 g/m*3 11.7 C 1.6 km/h
8 06-10-2020 00:35:00 11.8 C 10.1 g/m*3 11.8 C 0 km/h
9 06-10-2020 00:40:00 11.8 C 10.1 g/m*3 11.8 C 0 km/h
10 06-10-2020 00:45:00 11.8 C 10.1 g/m*3 11.8 C 0 km/h
11 06-10-2020 00:50:00 11.8 C 10.1 g/m*3 11.8 C 3.2 km/h
12 06-10-2020 00:55:00 11.8 C 10.1 g/m*3 11.8 C 0 km/h
13 06-10-2020 01:00:00 11.8 C 10.1 g/m*3 11.8 C 0 km/h
14 06-10-2020 01:05:00 11.8 C 10.1 g/m*3 11.8 C 0 km/h
15 06-10-2020 01:10:00 11.8 C 10.1 g/m*3 11.8 C 1.6 km/h
16 06-10-2020 01:15:00 11.8 C 10.1 g/m*3 11.8 C 0 km/h
17 06-10-2020 01:20:00 11.8 C 10.1 g/m*3 11.8 C 1.6 km/h
18 06-10-2020 01:25:00 11.8 C 10.1 g/m*3 11.8 C 0 km/h
19 06-10-2020 01:30:00 11.8 C 10.1 g/m*3 11.8 C 4.8 km/h
20 06-10-2020 01:35:00 11.8 C 10.1 g/m*3 11.8 C 4.8 km/h
21 06-10-2020 01:40:00 11.8 C 10.1 g/m*3 11.8 C 1.6 km/h
22 06-10-2020 01:45:00 11.8 C 10.1 g/m*3 11.8 C 0 km/h
23 06-10-2020 01:50:00 11.8 C 10.1 g/m*3 11.8 C 3.2 km/h
24 06-10-2020 01:55:00 11.8 C 10.1 g/m*3 11.8 C 8.1 km/h
25 06-10-2020 02:00:00 11.8 C 10.1 g/m*3 11.8 C 9.7 km/h
Sensor: Nr:Datum:Temp:Abs-Feuchte:Windchill:Wind:
Aussen-T/F 26 06-10-2020 02:05:00 11.8 C 10.1 g/m*3 11.8 C 9.7 km/h
27 06-10-2020 02:10:00 11.8 C 10.1 g/m*3 11.8 C 0 km/h
28 06-10-2020 02:15:00 11.8 C 10.1 g/m*3 11.8 C 0 km/h
29 06-10-2020 02:20:00 11.8 C 10.1 g/m*3 11.8 C 1.6 km/h
30 06-10-2020 02:25:00 11.8 C 10.1 g/m*3 11.8 C 1.6 km/h
31 06-10-2020 02:30:00 11.8 C 10.1 g/m*3 11.8 C 1.6 km/h
32 06-10-2020 02:35:00 11.8 C 10.1 g/m*3 11.8 C 3.2 km/h
33 06-10-2020 02:40:00 11.8 C 10.1 g/m*3 11.8 C 1.6 km/h
34 06-10-2020 02:45:00 11.8 C 10.1 g/m*3 11.8 C 0 km/h
35 06-10-2020 02:50:00 11.8 C 10.1 g/m*3 11.8 C 1.6 km/h
36 06-10-2020 02:55:00 11.8 C 10.1 g/m*3 11.8 C 1.6 km/h
37 06-10-2020 03:00:00 11.8 C 10.1 g/m*3 11.8 C 1.6 km/h
38 06-10-2020 03:05:00 11.8 C 10.1 g/m*3 11.8 C 3.2 km/h
39 06-10-2020 03:10:00 11.9 C 10.17 g/m*3 11.9 C 3.2 km/h
40 06-10-2020 03:15:00 11.8 C 10.1 g/m*3 11.8 C 3.2 km/h
41 06-10-2020 03:20:00 11.8 C 10.1 g/m*3 11.8 C 0 km/h
42 06-10-2020 03:25:00 11.9 C 10.17 g/m*3 11.9 C 6.4 km/h
43 06-10-2020 03:30:00 11.9 C 10.17 g/m*3 11.9 C 3.2 km/h
44 06-10-2020 03:35:00 11.9 C 10.17 g/m*3 11.9 C 4.8 km/h
45 06-10-2020 03:40:00 12 C 10.23 g/m*3 12 C 8.1 km/h
46 06-10-2020 03:45:00 12.1 C 10.4 g/m*3 12.1 C 8.1 km/h
47 06-10-2020 03:50:00 12.1 C 10.4 g/m*3 12.1 C 12.9 km/h
48 06-10-2020 03:55:00 12.2 C 10.36 g/m*3 12.2 C 3.2 km/h
49 06-10-2020 04:00:00 12.2 C 10.36 g/m*3 12.2 C 16.1 km/h
50 06-10-2020 04:05:00 12.3 C 10.42 g/m*3 12.3 C 19.3 km/h
Sensor: Nr:Datum:Temp:Abs-Feuchte:Windchill:Wind:
Aussen-T/F 51 06-10-2020 04:10:00 12.3 C 10.42 g/m*3 12.3 C 19.3 km/h
52 06-10-2020 04:15:00 12.3 C 10.42 g/m*3 12.3 C 20.9 km/h
53 06-10-2020 04:20:00 12.3 C 10.32 g/m*3 12.3 C 12.9 km/h
54 06-10-2020 04:25:00 12.3 C 10.32 g/m*3 12.3 C 8.1 km/h
55 06-10-2020 04:30:00 12.3 C 10.32 g/m*3 12.3 C 16.1 km/h
56 06-10-2020 04:35:00 12.3 C 10.32 g/m*3 12.3 C 20.9 km/h
57 06-10-2020 04:40:00 12.3 C 10.32 g/m*3 12.3 C 14.5 km/h
58 06-10-2020 04:45:00 12.3 C 10.32 g/m*3 12.3 C 16.1 km/h
59 06-10-2020 04:50:00 12.2 C 10.14 g/m*3 12.2 C 16.1 km/h
60 06-10-2020 04:55:00 12.2 C 10.14 g/m*3 12.2 C 14.5 km/h
61 06-10-2020 05:00:00 12.2 C 10.14 g/m*3 12.2 C 30.6 km/h
62 06-10-2020 05:05:00 12.3 C 10.21 g/m*3 12.3 C 22.5 km/h
63 06-10-2020 05:10:00 12.3 C 10.1 g/m*3 12.3 C 29 km/h
64 06-10-2020 05:15:00 12.2 C 10.04 g/m*3 12.2 C 27.4 km/h
65 06-10-2020 05:20:00 12.2 C 10.04 g/m*3 12.2 C 17.7 km/h
66 06-10-2020 05:25:00 12.1 C 9.87 g/m*3 12.1 C 17.7 km/h
67 06-10-2020 05:30:00 12.1 C 9.87 g/m*3 12.1 C 17.7 km/h
68 06-10-2020 05:35:00 12.1 C 9.76 g/m*3 12.1 C 29 km/h
69 06-10-2020 05:40:00 12.1 C 9.76 g/m*3 12.1 C 17.7 km/h
70 06-10-2020 05:45:00 12 C 9.7 g/m*3 12 C 16.1 km/h
71 06-10-2020 05:50:00 11.9 C 9.64 g/m*3 11.9 C 25.7 km/h
72 06-10-2020 05:55:00 11.9 C 9.53 g/m*3 11.9 C 22.5 km/h
73 06-10-2020 06:00:00 11.9 C 9.53 g/m*3 11.9 C 16.1 km/h
74 06-10-2020 06:05:00 11.8 C 9.47 g/m*3 11.8 C 16.1 km/h
75 06-10-2020 06:10:00 11.8 C 9.47 g/m*3 11.8 C 16.1 km/h
Sensor: Nr:Datum:Temp:Abs-Feuchte:Windchill:Wind:
Aussen-T/F 76 06-10-2020 06:15:00 11.8 C 9.37 g/m*3 11.8 C 16.1 km/h
77 06-10-2020 06:20:00 11.8 C 9.37 g/m*3 11.8 C 16.1 km/h
78 06-10-2020 06:25:00 11.8 C 9.37 g/m*3 11.8 C 16.1 km/h
79 06-10-2020 06:30:00 11.8 C 9.37 g/m*3 11.8 C 16.1 km/h
80 06-10-2020 06:35:00 11.7 C 9.31 g/m*3 11.7 C 24.1 km/h
81 06-10-2020 06:40:00 11.8 C 9.37 g/m*3 11.8 C 16.1 km/h
82 06-10-2020 06:45:00 11.8 C 9.37 g/m*3 11.8 C 12.9 km/h
83 06-10-2020 06:50:00 11.8 C 9.37 g/m*3 11.8 C 17.7 km/h
84 06-10-2020 06:55:00 11.8 C 9.37 g/m*3 11.8 C 16.1 km/h
85 06-10-2020 07:00:00 11.8 C 9.37 g/m*3 11.8 C 16.1 km/h
86 06-10-2020 07:05:00 11.8 C 9.37 g/m*3 11.8 C 12.9 km/h
87 06-10-2020 07:10:00 11.7 C 9.31 g/m*3 11.7 C 9.7 km/h
88 06-10-2020 07:15:00 11.7 C 9.2 g/m*3 11.7 C 17.7 km/h
89 06-10-2020 07:20:00 11.7 C 9.2 g/m*3 11.7 C 11.3 km/h
90 06-10-2020 07:25:00 11.7 C 9.2 g/m*3 11.7 C 9.7 km/h
91 06-10-2020 07:30:00 11.7 C 9.2 g/m*3 11.7 C 11.3 km/h
92 06-10-2020 07:35:00 11.6 C 9.15 g/m*3 11.6 C 8.1 km/h
93 06-10-2020 07:40:00 11.6 C 9.15 g/m*3 11.6 C 17.7 km/h
94 06-10-2020 07:45:00 11.7 C 9.2 g/m*3 11.7 C 4.8 km/h
95 06-10-2020 07:50:00 11.7 C 9.2 g/m*3 11.7 C 9.7 km/h
96 06-10-2020 07:55:00 11.8 C 9.26 g/m*3 11.8 C 9.7 km/h
97 06-10-2020 08:00:00 11.8 C 9.26 g/m*3 11.8 C 8.1 km/h
98 06-10-2020 08:05:00 11.8 C 9.16 g/m*3 11.8 C 14.5 km/h
99 06-10-2020 08:10:00 11.8 C 9.16 g/m*3 11.8 C 8.1 km/h
100 06-10-2020 08:15:00 11.8 C 9.16 g/m*3 11.8 C 11.3 km/h
Sensor: Nr:Datum:Temp:Abs-Feuchte:Windchill:Wind:
Aussen-T/F 101 06-10-2020 08:20:00 11.9 C 9.21 g/m*3 11.9 C 14.5 km/h
102 06-10-2020 08:25:00 11.9 C 9.21 g/m*3 11.9 C 6.4 km/h
103 06-10-2020 08:30:00 11.9 C 9.21 g/m*3 11.9 C 8.1 km/h
104 06-10-2020 08:35:00 12 C 9.27 g/m*3 12 C 6.4 km/h
105 06-10-2020 08:40:00 12.1 C 9.33 g/m*3 12.1 C 12.9 km/h
106 06-10-2020 08:45:00 12.1 C 9.33 g/m*3 12.1 C 1.6 km/h
107 06-10-2020 08:50:00 12.1 C 9.44 g/m*3 12.1 C 4.8 km/h
108 06-10-2020 08:55:00 12.2 C 9.39 g/m*3 12.2 C 8.1 km/h
109 06-10-2020 09:00:00 12.2 C 9.39 g/m*3 12.2 C 3.2 km/h
110 06-10-2020 09:05:00 12.3 C 9.34 g/m*3 12.3 C 6.4 km/h
111 06-10-2020 09:10:00 12.4 C 9.4 g/m*3 12.4 C 6.4 km/h
112 06-10-2020 09:15:00 12.5 C 9.46 g/m*3 12.5 C 6.4 km/h
113 06-10-2020 09:20:00 12.6 C 9.51 g/m*3 12.6 C 4.8 km/h
114 06-10-2020 09:25:00 12.6 C 9.62 g/m*3 12.6 C 6.4 km/h
115 06-10-2020 09:30:00 12.7 C 9.46 g/m*3 12.7 C 8.1 km/h
116 06-10-2020 09:35:00 12.7 C 9.57 g/m*3 12.7 C 3.2 km/h
117 06-10-2020 09:40:00 12.8 C 9.63 g/m*3 12.8 C 3.2 km/h
118 06-10-2020 09:45:00 12.8 C 9.63 g/m*3 12.8 C 6.4 km/h
119 06-10-2020 09:50:00 12.8 C 9.52 g/m*3 12.8 C 4.8 km/h
120 06-10-2020 09:55:00 12.9 C 9.69 g/m*3 12.9 C 1.6 km/h
121 06-10-2020 10:00:00 12.8 C 9.41 g/m*3 12.8 C 9.7 km/h
122 06-10-2020 10:05:00 12.9 C 9.58 g/m*3 12.9 C 1.6 km/h
123 06-10-2020 10:10:00 12.9 C 9.58 g/m*3 12.9 C 3.2 km/h
124 06-10-2020 10:15:00 13.1 C 9.81 g/m*3 13.1 C 1.6 km/h
125 06-10-2020 10:20:00 13.1 C 9.81 g/m*3 13.1 C 3.2 km/h
Sensor: Nr:Datum:Temp:Abs-Feuchte:Windchill:Wind:
Aussen-T/F 126 06-10-2020 10:25:00 13.2 C 9.76 g/m*3 13.2 C 9.7 km/h
127 06-10-2020 10:30:00 13.3 C 9.94 g/m*3 13.3 C 9.7 km/h
128 06-10-2020 10:35:00 13.4 C 9.88 g/m*3 13.4 C 8.1 km/h
129 06-10-2020 10:40:00 13.5 C 9.94 g/m*3 13.5 C 9.7 km/h
130 06-10-2020 10:45:00 13.7 C 9.95 g/m*3 13.7 C 6.4 km/h
131 06-10-2020 10:50:00 13.8 C 10.01 g/m*3 13.8 C 9.7 km/h
132 06-10-2020 10:55:00 13.9 C 9.95 g/m*3 13.9 C 11.3 km/h
133 06-10-2020 11:00:00 13.9 C 9.95 g/m*3 13.9 C 16.1 km/h
134 06-10-2020 11:05:00 13.9 C 9.95 g/m*3 13.9 C 11.3 km/h
135 06-10-2020 11:10:00 13.9 C 10.07 g/m*3 13.9 C 11.3 km/h
136 06-10-2020 11:15:00 13.8 C 10.01 g/m*3 13.8 C 11.3 km/h
137 06-10-2020 11:20:00 13.8 C 10.01 g/m*3 13.8 C 12.9 km/h
138 06-10-2020 11:25:00 13.8 C 10.01 g/m*3 13.8 C 12.9 km/h
139 06-10-2020 11:30:00 13.9 C 10.07 g/m*3 13.9 C 8.1 km/h
140 06-10-2020 11:35:00 13.9 C 10.07 g/m*3 13.9 C 11.3 km/h
141 06-10-2020 11:40:00 13.9 C 10.19 g/m*3 13.9 C 12.9 km/h
142 06-10-2020 11:45:00 13.9 C 10.31 g/m*3 13.9 C 8.1 km/h
143 06-10-2020 11:50:00 13.9 C 10.31 g/m*3 13.9 C 9.7 km/h
144 06-10-2020 11:55:00 14 C 10.49 g/m*3 14 C 9.7 km/h
145 06-10-2020 12:00:00 14.2 C 10.62 g/m*3 14.2 C 3.2 km/h
146 06-10-2020 12:05:00 14.3 C 10.57 g/m*3 14.3 C 11.3 km/h
147 06-10-2020 12:10:00 14.5 C 10.57 g/m*3 14.5 C 8.1 km/h
148 06-10-2020 12:15:00 14.7 C 10.58 g/m*3 14.7 C 19.3 km/h
149 06-10-2020 12:20:00 14.8 C 10.64 g/m*3 14.8 C 12.9 km/h
150 06-10-2020 12:25:00 14.9 C 10.58 g/m*3 14.9 C 19.3 km/h
Sensor: Nr:Datum:Temp:Abs-Feuchte:Windchill:Wind:
Aussen-T/F 151 06-10-2020 12:30:00 14.9 C 10.58 g/m*3 14.9 C 11.3 km/h
152 06-10-2020 12:35:00 15 C 10.64 g/m*3 15 C 9.7 km/h
153 06-10-2020 12:40:00 15.1 C 10.71 g/m*3 15.1 C 9.7 km/h
154 06-10-2020 12:45:00 15.1 C 10.58 g/m*3 15.1 C 17.7 km/h
155 06-10-2020 12:50:00 15.1 C 10.58 g/m*3 15.1 C 6.4 km/h
156 06-10-2020 12:55:00 15.1 C 10.58 g/m*3 15.1 C 8.1 km/h
157 06-10-2020 13:00:00 15.1 C 10.58 g/m*3 15.1 C 4.8 km/h
158 06-10-2020 13:05:00 15.1 C 10.71 g/m*3 15.1 C 8.1 km/h
159 06-10-2020 13:10:00 15.1 C 10.58 g/m*3 15.1 C 9.7 km/h
160 06-10-2020 13:15:00 15 C 10.51 g/m*3 15 C 9.7 km/h
161 06-10-2020 13:20:00 14.9 C 10.58 g/m*3 14.9 C 6.4 km/h
162 06-10-2020 13:25:00 15 C 10.64 g/m*3 15 C 11.3 km/h
163 06-10-2020 13:30:00 15.1 C 10.58 g/m*3 15.1 C 6.4 km/h
164 06-10-2020 13:35:00 15.1 C 10.71 g/m*3 15.1 C 8.1 km/h
165 06-10-2020 13:40:00 15.1 C 10.71 g/m*3 15.1 C 8.1 km/h
166 06-10-2020 13:45:00 15.1 C 10.71 g/m*3 15.1 C 6.4 km/h
167 06-10-2020 13:50:00 15.1 C 10.71 g/m*3 15.1 C 8.1 km/h
168 06-10-2020 13:55:00 14.9 C 10.83 g/m*3 14.9 C 9.7 km/h
169 06-10-2020 14:00:00 15 C 11.03 g/m*3 15 C 6.4 km/h
170 06-10-2020 14:05:00 15.1 C 10.97 g/m*3 15.1 C 4.8 km/h
171 06-10-2020 14:10:00 15.1 C 11.09 g/m*3 15.1 C 6.4 km/h
172 06-10-2020 14:15:00 15.1 C 11.09 g/m*3 15.1 C 11.3 km/h
173 06-10-2020 14:20:00 14.8 C 11.15 g/m*3 14.8 C 9.7 km/h
174 06-10-2020 14:25:00 14.7 C 11.21 g/m*3 14.7 C 9.7 km/h
175 06-10-2020 14:30:00 14.7 C 11.21 g/m*3 14.7 C 6.4 km/h
Sensor: Nr:Datum:Temp:Abs-Feuchte:Windchill:Wind:
Aussen-T/F 176 06-10-2020 14:35:00 14.8 C 11.27 g/m*3 14.8 C 14.5 km/h
177 06-10-2020 14:40:00 15.1 C 11.35 g/m*3 15.1 C 11.3 km/h
178 06-10-2020 14:45:00 15.2 C 11.29 g/m*3 15.2 C 12.9 km/h
179 06-10-2020 14:50:00 15.4 C 11.3 g/m*3 15.4 C 9.7 km/h
180 06-10-2020 14:55:00 15.6 C 11.17 g/m*3 15.6 C 14.5 km/h
181 06-10-2020 15:00:00 15.6 C 11.04 g/m*3 15.6 C 16.1 km/h
182 06-10-2020 15:05:00 15.6 C 10.91 g/m*3 15.6 C 17.7 km/h
183 06-10-2020 15:10:00 15.5 C 10.84 g/m*3 15.5 C 12.9 km/h
184 06-10-2020 15:15:00 15.4 C 10.64 g/m*3 15.4 C 20.9 km/h
185 06-10-2020 15:20:00 15.2 C 10.77 g/m*3 15.2 C 16.1 km/h
186 06-10-2020 15:25:00 15.1 C 10.84 g/m*3 15.1 C 16.1 km/h
187 06-10-2020 15:30:00 15.1 C 10.84 g/m*3 15.1 C 17.7 km/h
188 06-10-2020 15:35:00 15.2 C 11.03 g/m*3 15.2 C 9.7 km/h
189 06-10-2020 15:40:00 15.2 C 10.9 g/m*3 15.2 C 16.1 km/h
190 06-10-2020 15:45:00 15.3 C 10.84 g/m*3 15.3 C 9.7 km/h
191 06-10-2020 15:50:00 15.5 C 11.1 g/m*3 15.5 C 14.5 km/h
192 06-10-2020 15:55:00 15.6 C 11.17 g/m*3 15.6 C 9.7 km/h
193 06-10-2020 16:00:00 15.7 C 10.84 g/m*3 15.7 C 14.5 km/h
194 06-10-2020 16:05:00 15.6 C 10.77 g/m*3 15.6 C 12.9 km/h
195 06-10-2020 16:10:00 15.6 C 10.77 g/m*3 15.6 C 16.1 km/h
196 06-10-2020 16:15:00 15.6 C 10.91 g/m*3 15.6 C 16.1 km/h
197 06-10-2020 16:20:00 15.6 C 10.77 g/m*3 15.6 C 12.9 km/h
198 06-10-2020 16:25:00 15.4 C 10.64 g/m*3 15.4 C 11.3 km/h
199 06-10-2020 16:30:00 15.4 C 10.64 g/m*3 15.4 C 6.4 km/h
200 06-10-2020 16:35:00 15.3 C 10.71 g/m*3 15.3 C 9.7 km/h
Sensor: Nr:Datum:Temp:Abs-Feuchte:Windchill:Wind:
Aussen-T/F 201 06-10-2020 16:40:00 15.3 C 10.71 g/m*3 15.3 C 8.1 km/h
202 06-10-2020 16:45:00 15.2 C 10.64 g/m*3 15.2 C 16.1 km/h
203 06-10-2020 16:50:00 15.2 C 10.77 g/m*3 15.2 C 9.7 km/h
204 06-10-2020 16:55:00 15.2 C 10.64 g/m*3 15.2 C 11.3 km/h
205 06-10-2020 17:00:00 15.2 C 10.64 g/m*3 15.2 C 11.3 km/h
206 06-10-2020 17:05:00 15.1 C 10.58 g/m*3 15.1 C 11.3 km/h
207 06-10-2020 17:10:00 15.1 C 10.71 g/m*3 15.1 C 12.9 km/h
208 06-10-2020 17:15:00 15.1 C 10.58 g/m*3 15.1 C 11.3 km/h
209 06-10-2020 17:20:00 15 C 10.64 g/m*3 15 C 8.1 km/h
210 06-10-2020 17:25:00 14.9 C 10.58 g/m*3 14.9 C 8.1 km/h
211 06-10-2020 17:30:00 14.8 C 10.51 g/m*3 14.8 C 11.3 km/h
212 06-10-2020 17:35:00 14.8 C 10.77 g/m*3 14.8 C 6.4 km/h
213 06-10-2020 17:40:00 14.7 C 10.83 g/m*3 14.7 C 8.1 km/h
214 06-10-2020 17:45:00 14.4 C 10.75 g/m*3 14.4 C 9.7 km/h
215 06-10-2020 17:50:00 14.2 C 10.75 g/m*3 14.2 C 9.7 km/h
216 06-10-2020 17:55:00 14.1 C 10.8 g/m*3 14.1 C 14.5 km/h
217 06-10-2020 18:00:00 13.9 C 10.79 g/m*3 13.9 C 9.7 km/h
218 06-10-2020 18:05:00 13.8 C 10.72 g/m*3 13.8 C 8.1 km/h
219 06-10-2020 18:10:00 13.7 C 10.66 g/m*3 13.7 C 8.1 km/h
220 06-10-2020 18:15:00 13.6 C 10.59 g/m*3 13.6 C 9.7 km/h
221 06-10-2020 18:20:00 13.4 C 10.46 g/m*3 13.4 C 8.1 km/h
222 06-10-2020 18:25:00 13.3 C 10.4 g/m*3 13.3 C 8.1 km/h
223 06-10-2020 18:30:00 13.2 C 10.45 g/m*3 13.2 C 9.7 km/h
224 06-10-2020 18:35:00 13.2 C 10.33 g/m*3 13.2 C 12.9 km/h
225 06-10-2020 18:40:00 13.1 C 10.27 g/m*3 13.1 C 14.5 km/h
Sensor: Nr:Datum:Temp:Abs-Feuchte:Windchill:Wind:
Aussen-T/F 226 06-10-2020 18:45:00 13.1 C 10.27 g/m*3 13.1 C 3.2 km/h
227 06-10-2020 18:50:00 13.1 C 10.27 g/m*3 13.1 C 8.1 km/h
228 06-10-2020 18:55:00 13 C 10.32 g/m*3 13 C 6.4 km/h
229 06-10-2020 19:00:00 12.9 C 10.26 g/m*3 12.9 C 4.8 km/h
230 06-10-2020 19:05:00 12.9 C 10.26 g/m*3 12.9 C 9.7 km/h
231 06-10-2020 19:10:00 12.9 C 10.14 g/m*3 12.9 C 12.9 km/h
232 06-10-2020 19:15:00 12.9 C 10.14 g/m*3 12.9 C 4.8 km/h
233 06-10-2020 19:20:00 12.9 C 10.03 g/m*3 12.9 C 8.1 km/h
234 06-10-2020 19:25:00 12.8 C 9.97 g/m*3 12.8 C 6.4 km/h
235 06-10-2020 19:30:00 12.8 C 9.97 g/m*3 12.8 C 16.1 km/h
236 06-10-2020 19:35:00 12.9 C 10.03 g/m*3 12.9 C 11.3 km/h
237 06-10-2020 19:40:00 13 C 10.09 g/m*3 13 C 14.5 km/h
238 06-10-2020 19:45:00 13.1 C 10.04 g/m*3 13.1 C 12.9 km/h
239 06-10-2020 19:50:00 13.1 C 10.16 g/m*3 13.1 C 6.4 km/h
240 06-10-2020 19:55:00 13.1 C 10.16 g/m*3 13.1 C 6.4 km/h
241 06-10-2020 20:00:00 13.1 C 10.16 g/m*3 13.1 C 9.7 km/h
242 06-10-2020 20:05:00 13.1 C 10.16 g/m*3 13.1 C 16.1 km/h
243 06-10-2020 20:10:00 12.9 C 9.92 g/m*3 12.9 C 11.3 km/h
244 06-10-2020 20:15:00 12.9 C 9.92 g/m*3 12.9 C 9.7 km/h
245 06-10-2020 20:20:00 12.9 C 9.92 g/m*3 12.9 C 17.7 km/h
246 06-10-2020 20:25:00 12.9 C 9.92 g/m*3 12.9 C 0 km/h
247 06-10-2020 20:30:00 12.9 C 10.03 g/m*3 12.9 C 4.8 km/h
248 06-10-2020 20:35:00 12.8 C 9.97 g/m*3 12.8 C 1.6 km/h
249 06-10-2020 20:40:00 12.8 C 9.97 g/m*3 12.8 C 4.8 km/h
250 06-10-2020 20:45:00 12.7 C 9.91 g/m*3 12.7 C 6.4 km/h
Sensor: Nr:Datum:Temp:Abs-Feuchte:Windchill:Wind:
Aussen-T/F 251 06-10-2020 20:50:00 12.7 C 10.02 g/m*3 12.7 C 3.2 km/h
252 06-10-2020 20:55:00 12.7 C 10.02 g/m*3 12.7 C 3.2 km/h
253 06-10-2020 21:00:00 12.7 C 10.02 g/m*3 12.7 C 1.6 km/h
254 06-10-2020 21:05:00 12.6 C 9.85 g/m*3 12.6 C 6.4 km/h
255 06-10-2020 21:10:00 12.6 C 9.85 g/m*3 12.6 C 4.8 km/h
256 06-10-2020 21:15:00 12.6 C 9.85 g/m*3 12.6 C 8.1 km/h
257 06-10-2020 21:20:00 12.6 C 9.85 g/m*3 12.6 C 1.6 km/h
258 06-10-2020 21:25:00 12.6 C 9.85 g/m*3 12.6 C 12.9 km/h
259 06-10-2020 21:30:00 12.6 C 9.85 g/m*3 12.6 C 8.1 km/h
260 06-10-2020 21:35:00 12.7 C 9.91 g/m*3 12.7 C 4.8 km/h
261 06-10-2020 21:40:00 12.7 C 9.8 g/m*3 12.7 C 4.8 km/h
262 06-10-2020 21:45:00 12.8 C 9.86 g/m*3 12.8 C 12.9 km/h
263 06-10-2020 21:50:00 12.8 C 9.86 g/m*3 12.8 C 11.3 km/h
264 06-10-2020 21:55:00 12.8 C 9.86 g/m*3 12.8 C 1.6 km/h
265 06-10-2020 22:00:00 12.8 C 9.86 g/m*3 12.8 C 14.5 km/h
266 06-10-2020 22:05:00 12.8 C 9.86 g/m*3 12.8 C 9.7 km/h
267 06-10-2020 22:10:00 12.8 C 9.86 g/m*3 12.8 C 11.3 km/h
268 06-10-2020 22:15:00 12.8 C 9.86 g/m*3 12.8 C 9.7 km/h
269 06-10-2020 22:20:00 12.7 C 9.8 g/m*3 12.7 C 12.9 km/h
270 06-10-2020 22:25:00 12.7 C 9.8 g/m*3 12.7 C 11.3 km/h
271 06-10-2020 22:30:00 12.7 C 9.8 g/m*3 12.7 C 14.5 km/h
272 06-10-2020 22:35:00 12.8 C 9.86 g/m*3 12.8 C 9.7 km/h
273 06-10-2020 22:40:00 12.8 C 9.86 g/m*3 12.8 C 16.1 km/h
274 06-10-2020 22:45:00 12.8 C 9.74 g/m*3 12.8 C 9.7 km/h
275 06-10-2020 22:50:00 12.8 C 9.74 g/m*3 12.8 C 14.5 km/h
Sensor: Nr:Datum:Temp:Abs-Feuchte:Windchill:Wind:
Aussen-T/F 276 06-10-2020 22:55:00 12.8 C 9.74 g/m*3 12.8 C 16.1 km/h
277 06-10-2020 23:00:00 12.8 C 9.74 g/m*3 12.8 C 12.9 km/h
278 06-10-2020 23:05:00 12.8 C 9.74 g/m*3 12.8 C 11.3 km/h
279 06-10-2020 23:10:00 12.7 C 9.68 g/m*3 12.7 C 9.7 km/h
280 06-10-2020 23:15:00 12.7 C 9.68 g/m*3 12.7 C 9.7 km/h
281 06-10-2020 23:20:00 12.7 C 9.68 g/m*3 12.7 C 17.7 km/h
282 06-10-2020 23:25:00 12.7 C 9.68 g/m*3 12.7 C 16.1 km/h
283 06-10-2020 23:30:00 12.7 C 9.68 g/m*3 12.7 C 11.3 km/h
284 06-10-2020 23:35:00 12.6 C 9.62 g/m*3 12.6 C 14.5 km/h
285 06-10-2020 23:40:00 12.6 C 9.62 g/m*3 12.6 C 12.9 km/h
286 06-10-2020 23:45:00 12.6 C 9.62 g/m*3 12.6 C 9.7 km/h
287 06-10-2020 23:50:00 12.6 C 9.62 g/m*3 12.6 C 8.1 km/h
288 06-10-2020 23:55:00 12.5 C 9.57 g/m*3 12.5 C 16.1 km/h
289 07-10-2020 00:00:00 12.4 C 9.62 g/m*3 12.4 C 14.5 km/h
290 07-10-2020 00:05:00 12.4 C 9.62 g/m*3 12.4 C 14.5 km/h
291 07-10-2020 00:10:00 12.3 C 9.45 g/m*3 12.3 C 6.4 km/h
292 07-10-2020 00:15:00 12.3 C 9.56 g/m*3 12.3 C 8.1 km/h
293 07-10-2020 00:20:00 12.2 C 9.5 g/m*3 12.2 C 12.9 km/h
294 07-10-2020 00:25:00 12.2 C 9.5 g/m*3 12.2 C 9.7 km/h
295 07-10-2020 00:30:00 12.2 C 9.5 g/m*3 12.2 C 9.7 km/h
296 07-10-2020 00:35:00 12.2 C 9.5 g/m*3 12.2 C 11.3 km/h
297 07-10-2020 00:40:00 12.2 C 9.5 g/m*3 12.2 C 11.3 km/h
298 07-10-2020 00:45:00 12.2 C 9.5 g/m*3 12.2 C 3.2 km/h
299 07-10-2020 00:50:00 12.2 C 9.5 g/m*3 12.2 C 8.1 km/h
300 07-10-2020 00:55:00 12.2 C 9.6 g/m*3 12.2 C 3.2 km/h
Sensor: Nr:Datum:Temp:Abs-Feuchte:Windchill:Wind:
Aussen-T/F 301 07-10-2020 01:00:00 12.2 C 9.6 g/m*3 12.2 C 1.6 km/h
302 07-10-2020 01:05:00 12.2 C 9.6 g/m*3 12.2 C 6.4 km/h
303 07-10-2020 01:10:00 12.2 C 9.6 g/m*3 12.2 C 8.1 km/h
304 07-10-2020 01:15:00 12.3 C 9.56 g/m*3 12.3 C 6.4 km/h
305 07-10-2020 01:20:00 12.3 C 9.56 g/m*3 12.3 C 9.7 km/h
306 07-10-2020 01:25:00 12.3 C 9.56 g/m*3 12.3 C 6.4 km/h
307 07-10-2020 01:30:00 12.4 C 9.62 g/m*3 12.4 C 16.1 km/h
308 07-10-2020 01:35:00 12.4 C 9.62 g/m*3 12.4 C 9.7 km/h
309 07-10-2020 01:40:00 12.5 C 9.68 g/m*3 12.5 C 14.5 km/h
310 07-10-2020 01:45:00 12.4 C 9.62 g/m*3 12.4 C 14.5 km/h
311 07-10-2020 01:50:00 12.4 C 9.72 g/m*3 12.4 C 11.3 km/h
312 07-10-2020 01:55:00 12.3 C 9.66 g/m*3 12.3 C 8.1 km/h
313 07-10-2020 02:00:00 12.3 C 9.77 g/m*3 12.3 C 14.5 km/h
314 07-10-2020 02:05:00 12.2 C 9.71 g/m*3 12.2 C 12.9 km/h
315 07-10-2020 02:10:00 12.1 C 9.65 g/m*3 12.1 C 11.3 km/h
316 07-10-2020 02:15:00 12 C 9.7 g/m*3 12 C 12.9 km/h
317 07-10-2020 02:20:00 11.9 C 9.64 g/m*3 11.9 C 8.1 km/h
318 07-10-2020 02:25:00 11.9 C 9.64 g/m*3 11.9 C 6.4 km/h
319 07-10-2020 02:30:00 11.8 C 9.58 g/m*3 11.8 C 9.7 km/h
320 07-10-2020 02:35:00 11.8 C 9.58 g/m*3 11.8 C 14.5 km/h
321 07-10-2020 02:40:00 11.8 C 9.58 g/m*3 11.8 C 8.1 km/h
322 07-10-2020 02:45:00 11.7 C 9.52 g/m*3 11.7 C 8.1 km/h
323 07-10-2020 02:50:00 11.7 C 9.62 g/m*3 11.7 C 16.1 km/h
324 07-10-2020 02:55:00 11.7 C 9.52 g/m*3 11.7 C 19.3 km/h
325 07-10-2020 03:00:00 11.7 C 9.52 g/m*3 11.7 C 12.9 km/h
Sensor: Nr:Datum:Temp:Abs-Feuchte:Windchill:Wind:
Aussen-T/F 326 07-10-2020 03:05:00 11.7 C 9.52 g/m*3 11.7 C 11.3 km/h
327 07-10-2020 03:10:00 11.7 C 9.52 g/m*3 11.7 C 12.9 km/h
328 07-10-2020 03:15:00 11.8 C 9.58 g/m*3 11.8 C 17.7 km/h
329 07-10-2020 03:20:00 11.8 C 9.58 g/m*3 11.8 C 11.3 km/h
330 07-10-2020 03:25:00 11.8 C 9.47 g/m*3 11.8 C 12.9 km/h
331 07-10-2020 03:30:00 11.9 C 9.53 g/m*3 11.9 C 9.7 km/h
332 07-10-2020 03:35:00 11.9 C 9.53 g/m*3 11.9 C 8.1 km/h
333 07-10-2020 03:40:00 11.9 C 9.53 g/m*3 11.9 C 8.1 km/h
334 07-10-2020 03:45:00 11.9 C 9.53 g/m*3 11.9 C 12.9 km/h
335 07-10-2020 03:50:00 12 C 9.59 g/m*3 12 C 14.5 km/h
336 07-10-2020 03:55:00 12.1 C 9.54 g/m*3 12.1 C 9.7 km/h
337 07-10-2020 04:00:00 12.1 C 9.54 g/m*3 12.1 C 12.9 km/h
338 07-10-2020 04:05:00 12.1 C 9.44 g/m*3 12.1 C 12.9 km/h
339 07-10-2020 04:10:00 12.2 C 9.5 g/m*3 12.2 C 9.7 km/h
340 07-10-2020 04:15:00 12.2 C 9.5 g/m*3 12.2 C 6.4 km/h
341 07-10-2020 04:20:00 12.2 C 9.5 g/m*3 12.2 C 14.5 km/h
342 07-10-2020 04:25:00 12.2 C 9.5 g/m*3 12.2 C 12.9 km/h
343 07-10-2020 04:30:00 12.2 C 9.5 g/m*3 12.2 C 12.9 km/h
344 07-10-2020 04:35:00 12.2 C 9.5 g/m*3 12.2 C 9.7 km/h
345 07-10-2020 04:40:00 12.2 C 9.5 g/m*3 12.2 C 11.3 km/h
346 07-10-2020 04:45:00 12.2 C 9.39 g/m*3 12.2 C 14.5 km/h
347 07-10-2020 04:50:00 12.3 C 9.45 g/m*3 12.3 C 14.5 km/h
348 07-10-2020 04:55:00 12.3 C 9.45 g/m*3 12.3 C 11.3 km/h
349 07-10-2020 05:00:00 12.3 C 9.45 g/m*3 12.3 C 14.5 km/h
350 07-10-2020 05:05:00 12.3 C 9.45 g/m*3 12.3 C 9.7 km/h
Sensor: Nr:Datum:Temp:Abs-Feuchte:Windchill:Wind:
Aussen-T/F 351 07-10-2020 05:10:00 12.2 C 9.39 g/m*3 12.2 C 8.1 km/h
352 07-10-2020 05:15:00 12.2 C 9.39 g/m*3 12.2 C 8.1 km/h
353 07-10-2020 05:20:00 12.1 C 9.44 g/m*3 12.1 C 9.7 km/h
354 07-10-2020 05:25:00 12.1 C 9.44 g/m*3 12.1 C 14.5 km/h
355 07-10-2020 05:30:00 12.1 C 9.44 g/m*3 12.1 C 12.9 km/h
356 07-10-2020 05:35:00 12.1 C 9.44 g/m*3 12.1 C 8.1 km/h
357 07-10-2020 05:40:00 12.1 C 9.44 g/m*3 12.1 C 8.1 km/h
358 07-10-2020 05:45:00 12.1 C 9.44 g/m*3 12.1 C 9.7 km/h
359 07-10-2020 05:50:00 12.1 C 9.44 g/m*3 12.1 C 11.3 km/h
360 07-10-2020 05:55:00 12.1 C 9.44 g/m*3 12.1 C 8.1 km/h
361 07-10-2020 06:00:00 12.1 C 9.44 g/m*3 12.1 C 14.5 km/h
362 07-10-2020 06:05:00 12.1 C 9.44 g/m*3 12.1 C 12.9 km/h
363 07-10-2020 06:10:00 12.1 C 9.44 g/m*3 12.1 C 14.5 km/h
364 07-10-2020 06:15:00 12.1 C 9.44 g/m*3 12.1 C 20.9 km/h
365 07-10-2020 06:20:00 12.1 C 9.44 g/m*3 12.1 C 14.5 km/h
366 07-10-2020 06:25:00 12.1 C 9.44 g/m*3 12.1 C 11.3 km/h
367 07-10-2020 06:30:00 12.1 C 9.44 g/m*3 12.1 C 9.7 km/h
368 07-10-2020 06:35:00 11.9 C 9.32 g/m*3 11.9 C 12.9 km/h
369 07-10-2020 06:40:00 11.9 C 9.43 g/m*3 11.9 C 9.7 km/h
370 07-10-2020 06:45:00 11.8 C 9.37 g/m*3 11.8 C 9.7 km/h
371 07-10-2020 06:50:00 11.8 C 9.47 g/m*3 11.8 C 11.3 km/h
372 07-10-2020 06:55:00 11.8 C 9.47 g/m*3 11.8 C 4.8 km/h
373 07-10-2020 07:00:00 11.8 C 9.47 g/m*3 11.8 C 6.4 km/h
374 07-10-2020 07:05:00 11.8 C 9.47 g/m*3 11.8 C 11.3 km/h
375 07-10-2020 07:10:00 11.9 C 9.43 g/m*3 11.9 C 12.9 km/h
Sensor: Nr:Datum:Temp:Abs-Feuchte:Windchill:Wind:
Aussen-T/F 376 07-10-2020 07:15:00 11.9 C 9.53 g/m*3 11.9 C 14.5 km/h
377 07-10-2020 07:20:00 11.9 C 9.43 g/m*3 11.9 C 12.9 km/h
378 07-10-2020 07:25:00 12.1 C 9.54 g/m*3 12.1 C 14.5 km/h
379 07-10-2020 07:30:00 12.2 C 9.6 g/m*3 12.2 C 16.1 km/h
380 07-10-2020 07:35:00 12.3 C 9.56 g/m*3 12.3 C 12.9 km/h
381 07-10-2020 07:40:00 12.3 C 9.56 g/m*3 12.3 C 12.9 km/h
382 07-10-2020 07:45:00 12.3 C 9.56 g/m*3 12.3 C 17.7 km/h
383 07-10-2020 07:50:00 12.4 C 9.51 g/m*3 12.4 C 11.3 km/h
384 07-10-2020 07:55:00 12.4 C 9.51 g/m*3 12.4 C 12.9 km/h
385 07-10-2020 08:00:00 12.4 C 9.51 g/m*3 12.4 C 12.9 km/h
386 07-10-2020 08:05:00 12.4 C 9.51 g/m*3 12.4 C 14.5 km/h
387 07-10-2020 08:10:00 12.4 C 9.51 g/m*3 12.4 C 11.3 km/h
388 07-10-2020 08:15:00 12.5 C 9.57 g/m*3 12.5 C 11.3 km/h
389 07-10-2020 08:20:00 12.5 C 9.46 g/m*3 12.5 C 8.1 km/h
390 07-10-2020 08:25:00 12.5 C 9.46 g/m*3 12.5 C 11.3 km/h
391 07-10-2020 08:30:00 12.5 C 9.46 g/m*3 12.5 C 12.9 km/h
392 07-10-2020 08:35:00 12.5 C 9.46 g/m*3 12.5 C 12.9 km/h
393 07-10-2020 08:40:00 12.6 C 9.51 g/m*3 12.6 C 12.9 km/h
394 07-10-2020 08:45:00 12.6 C 9.51 g/m*3 12.6 C 16.1 km/h
395 07-10-2020 08:50:00 12.6 C 9.51 g/m*3 12.6 C 14.5 km/h
396 07-10-2020 08:55:00 12.6 C 9.51 g/m*3 12.6 C 12.9 km/h
397 07-10-2020 09:00:00 12.7 C 9.57 g/m*3 12.7 C 8.1 km/h
398 07-10-2020 09:05:00 12.7 C 9.57 g/m*3 12.7 C 9.7 km/h
399 07-10-2020 09:10:00 12.7 C 9.57 g/m*3 12.7 C 9.7 km/h
400 07-10-2020 09:15:00 12.7 C 9.57 g/m*3 12.7 C 9.7 km/h
Sensor: Nr:Datum:Temp:Abs-Feuchte:Windchill:Wind:
Aussen-T/F 401 07-10-2020 09:20:00 12.7 C 9.57 g/m*3 12.7 C 6.4 km/h
402 07-10-2020 09:25:00 12.7 C 9.57 g/m*3 12.7 C 11.3 km/h
403 07-10-2020 09:30:00 12.8 C 9.63 g/m*3 12.8 C 11.3 km/h
404 07-10-2020 09:35:00 12.8 C 9.52 g/m*3 12.8 C 14.5 km/h
405 07-10-2020 09:40:00 12.8 C 9.52 g/m*3 12.8 C 14.5 km/h
406 07-10-2020 09:45:00 12.8 C 9.52 g/m*3 12.8 C 11.3 km/h
407 07-10-2020 09:50:00 12.9 C 9.58 g/m*3 12.9 C 14.5 km/h
408 07-10-2020 09:55:00 12.9 C 9.58 g/m*3 12.9 C 11.3 km/h
409 07-10-2020 10:00:00 12.9 C 9.47 g/m*3 12.9 C 14.5 km/h
410 07-10-2020 10:05:00 12.9 C 9.58 g/m*3 12.9 C 14.5 km/h
411 07-10-2020 10:10:00 13 C 9.64 g/m*3 13 C 9.7 km/h
412 07-10-2020 10:15:00 13.1 C 9.7 g/m*3 13.1 C 9.7 km/h
413 07-10-2020 10:20:00 13.2 C 9.76 g/m*3 13.2 C 12.9 km/h
414 07-10-2020 10:25:00 13.2 C 9.64 g/m*3 13.2 C 16.1 km/h
415 07-10-2020 10:30:00 13.3 C 9.7 g/m*3 13.3 C 11.3 km/h
416 07-10-2020 10:35:00 13.4 C 9.76 g/m*3 13.4 C 14.5 km/h
417 07-10-2020 10:40:00 13.4 C 9.65 g/m*3 13.4 C 12.9 km/h
418 07-10-2020 10:45:00 13.4 C 9.65 g/m*3 13.4 C 9.7 km/h
419 07-10-2020 10:50:00 13.5 C 9.59 g/m*3 13.5 C 12.9 km/h
420 07-10-2020 10:55:00 13.6 C 9.65 g/m*3 13.6 C 14.5 km/h
421 07-10-2020 11:00:00 13.6 C 9.65 g/m*3 13.6 C 6.4 km/h
422 07-10-2020 11:05:00 13.5 C 9.59 g/m*3 13.5 C 9.7 km/h
423 07-10-2020 11:10:00 13.5 C 9.59 g/m*3 13.5 C 12.9 km/h
424 07-10-2020 11:15:00 13.5 C 9.47 g/m*3 13.5 C 11.3 km/h
425 07-10-2020 11:20:00 13.6 C 9.42 g/m*3 13.6 C 16.1 km/h
Sensor: Nr:Datum:Temp:Abs-Feuchte:Windchill:Wind:
Aussen-T/F 426 07-10-2020 11:25:00 13.7 C 9 g/m*3 13.7 C 19.3 km/h
427 07-10-2020 11:30:00 13.8 C 8.94 g/m*3 13.8 C 19.3 km/h
428 07-10-2020 11:35:00 13.9 C 9.11 g/m*3 13.9 C 11.3 km/h
429 07-10-2020 11:40:00 13.9 C 9.23 g/m*3 13.9 C 12.9 km/h
430 07-10-2020 11:45:00 14.1 C 9.34 g/m*3 14.1 C 14.5 km/h
431 07-10-2020 11:50:00 14.2 C 9.28 g/m*3 14.2 C 14.5 km/h
432 07-10-2020 11:55:00 14.3 C 9.34 g/m*3 14.3 C 11.3 km/h
433 07-10-2020 12:00:00 14.6 C 9.39 g/m*3 14.6 C 14.5 km/h
434 07-10-2020 12:05:00 14.7 C 9.57 g/m*3 14.7 C 16.1 km/h
435 07-10-2020 12:10:00 14.8 C 9.5 g/m*3 14.8 C 14.5 km/h
436 07-10-2020 12:15:00 14.7 C 9.44 g/m*3 14.7 C 11.3 km/h
437 07-10-2020 12:20:00 14.7 C 9.32 g/m*3 14.7 C 16.1 km/h
438 07-10-2020 12:25:00 14.7 C 9.32 g/m*3 14.7 C 17.7 km/h
439 07-10-2020 12:30:00 14.7 C 9.32 g/m*3 14.7 C 11.3 km/h
440 07-10-2020 12:35:00 14.7 C 9.32 g/m*3 14.7 C 16.1 km/h
441 07-10-2020 12:40:00 14.7 C 9.19 g/m*3 14.7 C 22.5 km/h
442 07-10-2020 12:45:00 14.7 C 9.44 g/m*3 14.7 C 17.7 km/h
443 07-10-2020 12:50:00 14.8 C 9.5 g/m*3 14.8 C 11.3 km/h
444 07-10-2020 12:55:00 14.9 C 9.43 g/m*3 14.9 C 14.5 km/h
445 07-10-2020 13:00:00 15 C 9.36 g/m*3 15 C 17.7 km/h
446 07-10-2020 13:05:00 15.1 C 9.42 g/m*3 15.1 C 12.9 km/h
447 07-10-2020 13:10:00 15.2 C 9.48 g/m*3 15.2 C 14.5 km/h
448 07-10-2020 13:15:00 15.1 C 9.55 g/m*3 15.1 C 17.7 km/h
449 07-10-2020 13:20:00 15 C 9.36 g/m*3 15 C 16.1 km/h
450 07-10-2020 13:25:00 15 C 9.49 g/m*3 15 C 17.7 km/h
Sensor: Nr:Datum:Temp:Abs-Feuchte:Windchill:Wind:
Aussen-T/F 451 07-10-2020 13:30:00 15 C 9.62 g/m*3 15 C 17.7 km/h
452 07-10-2020 13:35:00 15 C 9.62 g/m*3 15 C 9.7 km/h
453 07-10-2020 13:40:00 15.1 C 9.8 g/m*3 15.1 C 4.8 km/h
454 07-10-2020 13:45:00 15.2 C 9.73 g/m*3 15.2 C 16.1 km/h
455 07-10-2020 13:50:00 15.2 C 9.73 g/m*3 15.2 C 11.3 km/h
456 07-10-2020 13:55:00 15.2 C 9.73 g/m*3 15.2 C 8.1 km/h
457 07-10-2020 14:00:00 15.2 C 9.61 g/m*3 15.2 C 12.9 km/h
458 07-10-2020 14:05:00 15.2 C 9.73 g/m*3 15.2 C 17.7 km/h
459 07-10-2020 14:10:00 15.2 C 9.61 g/m*3 15.2 C 19.3 km/h
460 07-10-2020 14:15:00 15.1 C 9.68 g/m*3 15.1 C 12.9 km/h
461 07-10-2020 14:20:00 15.2 C 9.61 g/m*3 15.2 C 16.1 km/h
462 07-10-2020 14:25:00 15.2 C 9.73 g/m*3 15.2 C 9.7 km/h
463 07-10-2020 14:30:00 15.2 C 9.73 g/m*3 15.2 C 12.9 km/h
464 07-10-2020 14:35:00 15.2 C 9.73 g/m*3 15.2 C 6.4 km/h
465 07-10-2020 14:40:00 15.1 C 9.68 g/m*3 15.1 C 8.1 km/h
466 07-10-2020 14:45:00 15.1 C 9.68 g/m*3 15.1 C 14.5 km/h
467 07-10-2020 14:50:00 14.8 C 10.01 g/m*3 14.8 C 22.5 km/h
468 07-10-2020 14:55:00 14.4 C 10.14 g/m*3 14.4 C 12.9 km/h
469 07-10-2020 15:00:00 14.2 C 10.14 g/m*3 14.2 C 11.3 km/h
470 07-10-2020 15:05:00 14.1 C 10.07 g/m*3 14.1 C 12.9 km/h
471 07-10-2020 15:10:00 14 C 10.01 g/m*3 14 C 14.5 km/h
472 07-10-2020 15:15:00 14.1 C 9.95 g/m*3 14.1 C 14.5 km/h
473 07-10-2020 15:20:00 14.2 C 10.01 g/m*3 14.2 C 16.1 km/h
474 07-10-2020 15:25:00 14.2 C 10.01 g/m*3 14.2 C 11.3 km/h
475 07-10-2020 15:30:00 14.2 C 9.89 g/m*3 14.2 C 11.3 km/h
Sensor: Nr:Datum:Temp:Abs-Feuchte:Windchill:Wind:
Aussen-T/F 476 07-10-2020 15:35:00 14.2 C 9.89 g/m*3 14.2 C 9.7 km/h
477 07-10-2020 15:40:00 14.2 C 9.89 g/m*3 14.2 C 12.9 km/h
478 07-10-2020 15:45:00 14.3 C 9.83 g/m*3 14.3 C 9.7 km/h
479 07-10-2020 15:50:00 14.4 C 9.89 g/m*3 14.4 C 6.4 km/h
480 07-10-2020 15:55:00 14.6 C 10.01 g/m*3 14.6 C 8.1 km/h
481 07-10-2020 16:00:00 14.7 C 10.07 g/m*3 14.7 C 6.4 km/h
482 07-10-2020 16:05:00 14.8 C 10.13 g/m*3 14.8 C 4.8 km/h
483 07-10-2020 16:10:00 14.8 C 10.13 g/m*3 14.8 C 6.4 km/h
484 07-10-2020 16:15:00 14.9 C 10.32 g/m*3 14.9 C 4.8 km/h
485 07-10-2020 16:20:00 14.9 C 10.2 g/m*3 14.9 C 4.8 km/h
486 07-10-2020 16:25:00 14.9 C 10.2 g/m*3 14.9 C 1.6 km/h
487 07-10-2020 16:30:00 14.8 C 10.13 g/m*3 14.8 C 9.7 km/h
488 07-10-2020 16:35:00 14.8 C 10.01 g/m*3 14.8 C 8.1 km/h
489 07-10-2020 16:40:00 14.8 C 10.01 g/m*3 14.8 C 12.9 km/h
490 07-10-2020 16:45:00 14.8 C 9.75 g/m*3 14.8 C 11.3 km/h
491 07-10-2020 16:50:00 14.8 C 9.63 g/m*3 14.8 C 16.1 km/h
492 07-10-2020 16:55:00 14.8 C 9.5 g/m*3 14.8 C 20.9 km/h
493 07-10-2020 17:00:00 14.8 C 9.63 g/m*3 14.8 C 6.4 km/h
494 07-10-2020 17:05:00 14.8 C 9.75 g/m*3 14.8 C 6.4 km/h
495 07-10-2020 17:10:00 14.8 C 9.63 g/m*3 14.8 C 9.7 km/h
496 07-10-2020 17:15:00 14.9 C 9.56 g/m*3 14.9 C 17.7 km/h
497 07-10-2020 17:20:00 15 C 9.75 g/m*3 15 C 9.7 km/h
498 07-10-2020 17:25:00 15 C 9.62 g/m*3 15 C 8.1 km/h
499 07-10-2020 17:30:00 15 C 9.62 g/m*3 15 C 6.4 km/h
500 07-10-2020 17:35:00 14.9 C 9.43 g/m*3 14.9 C 11.3 km/h
Sensor: Nr:Datum:Temp:Abs-Feuchte:Windchill:Wind:
Aussen-T/F 501 07-10-2020 17:40:00 14.9 C 9.69 g/m*3 14.9 C 8.1 km/h
502 07-10-2020 17:45:00 14.8 C 9.63 g/m*3 14.8 C 11.3 km/h
503 07-10-2020 17:50:00 14.8 C 9.5 g/m*3 14.8 C 6.4 km/h
504 07-10-2020 17:55:00 14.7 C 9.44 g/m*3 14.7 C 12.9 km/h
505 07-10-2020 18:00:00 14.7 C 9.32 g/m*3 14.7 C 8.1 km/h
506 07-10-2020 18:05:00 14.7 C 9.32 g/m*3 14.7 C 12.9 km/h
507 07-10-2020 18:10:00 14.7 C 9.32 g/m*3 14.7 C 9.7 km/h
508 07-10-2020 18:15:00 14.6 C 9.39 g/m*3 14.6 C 8.1 km/h
509 07-10-2020 18:20:00 14.7 C 9.32 g/m*3 14.7 C 11.3 km/h
510 07-10-2020 18:25:00 14.7 C 9.44 g/m*3 14.7 C 6.4 km/h
511 07-10-2020 18:30:00 14.6 C 9.51 g/m*3 14.6 C 8.1 km/h
512 07-10-2020 18:35:00 14.5 C 9.45 g/m*3 14.5 C 4.8 km/h
513 07-10-2020 18:40:00 14.3 C 9.34 g/m*3 14.3 C 8.1 km/h
514 07-10-2020 18:45:00 14.3 C 9.34 g/m*3 14.3 C 4.8 km/h
515 07-10-2020 18:50:00 14.2 C 9.28 g/m*3 14.2 C 3.2 km/h
516 07-10-2020 18:55:00 14.1 C 9.22 g/m*3 14.1 C 6.4 km/h
517 07-10-2020 19:00:00 13.9 C 8.99 g/m*3 13.9 C 9.7 km/h
518 07-10-2020 19:05:00 13.9 C 8.99 g/m*3 13.9 C 9.7 km/h
519 07-10-2020 19:10:00 13.9 C 8.75 g/m*3 13.9 C 12.9 km/h
520 07-10-2020 19:15:00 13.9 C 8.75 g/m*3 13.9 C 12.9 km/h
521 07-10-2020 19:20:00 13.9 C 8.51 g/m*3 13.9 C 11.3 km/h
522 07-10-2020 19:25:00 14 C 8.44 g/m*3 14 C 14.5 km/h
523 07-10-2020 19:30:00 14.1 C 8.5 g/m*3 14.1 C 11.3 km/h
524 07-10-2020 19:35:00 14.1 C 8.5 g/m*3 14.1 C 9.7 km/h
525 07-10-2020 19:40:00 14.1 C 8.5 g/m*3 14.1 C 8.1 km/h
Sensor: Nr:Datum:Temp:Abs-Feuchte:Windchill:Wind:
Aussen-T/F 526 07-10-2020 19:45:00 14.1 C 8.5 g/m*3 14.1 C 14.5 km/h
527 07-10-2020 19:50:00 14.1 C 8.62 g/m*3 14.1 C 8.1 km/h
528 07-10-2020 19:55:00 14 C 8.56 g/m*3 14 C 9.7 km/h
529 07-10-2020 20:00:00 13.9 C 8.51 g/m*3 13.9 C 8.1 km/h
530 07-10-2020 20:05:00 13.9 C 8.63 g/m*3 13.9 C 9.7 km/h
531 07-10-2020 20:10:00 13.8 C 8.58 g/m*3 13.8 C 8.1 km/h
532 07-10-2020 20:15:00 13.7 C 8.64 g/m*3 13.7 C 6.4 km/h
533 07-10-2020 20:20:00 13.7 C 8.76 g/m*3 13.7 C 6.4 km/h
534 07-10-2020 20:25:00 13.6 C 8.71 g/m*3 13.6 C 12.9 km/h
535 07-10-2020 20:30:00 13.5 C 8.66 g/m*3 13.5 C 6.4 km/h
536 07-10-2020 20:35:00 13.4 C 8.6 g/m*3 13.4 C 8.1 km/h
537 07-10-2020 20:40:00 13.3 C 8.55 g/m*3 13.3 C 11.3 km/h
538 07-10-2020 20:45:00 13.3 C 8.55 g/m*3 13.3 C 9.7 km/h
539 07-10-2020 20:50:00 13.3 C 8.66 g/m*3 13.3 C 6.4 km/h
540 07-10-2020 20:55:00 13.2 C 8.73 g/m*3 13.2 C 8.1 km/h
541 07-10-2020 21:00:00 13.1 C 8.67 g/m*3 13.1 C 4.8 km/h
542 07-10-2020 21:05:00 13 C 8.73 g/m*3 13 C 6.4 km/h
543 07-10-2020 21:10:00 12.9 C 8.68 g/m*3 12.9 C 4.8 km/h
544 07-10-2020 21:15:00 12.9 C 8.79 g/m*3 12.9 C 8.1 km/h
545 07-10-2020 21:20:00 12.9 C 8.79 g/m*3 12.9 C 4.8 km/h
546 07-10-2020 21:25:00 12.9 C 8.79 g/m*3 12.9 C 4.8 km/h
547 07-10-2020 21:30:00 12.8 C 8.74 g/m*3 12.8 C 11.3 km/h
548 07-10-2020 21:35:00 12.8 C 8.85 g/m*3 12.8 C 8.1 km/h
549 07-10-2020 21:40:00 12.8 C 8.85 g/m*3 12.8 C 3.2 km/h
550 07-10-2020 21:45:00 12.8 C 8.96 g/m*3 12.8 C 0 km/h
Sensor: Nr:Datum:Temp:Abs-Feuchte:Windchill:Wind:
Aussen-T/F 551 07-10-2020 21:50:00 12.7 C 8.91 g/m*3 12.7 C 4.8 km/h
552 07-10-2020 21:55:00 12.6 C 8.96 g/m*3 12.6 C 8.1 km/h
553 07-10-2020 22:00:00 12.5 C 8.91 g/m*3 12.5 C 4.8 km/h
554 07-10-2020 22:05:00 12.4 C 8.85 g/m*3 12.4 C 6.4 km/h
555 07-10-2020 22:10:00 12.4 C 8.96 g/m*3 12.4 C 4.8 km/h
556 07-10-2020 22:15:00 12.3 C 8.9 g/m*3 12.3 C 3.2 km/h
557 07-10-2020 22:20:00 12.3 C 8.9 g/m*3 12.3 C 4.8 km/h
558 07-10-2020 22:25:00 12.3 C 8.9 g/m*3 12.3 C 4.8 km/h
559 07-10-2020 22:30:00 12.3 C 9.01 g/m*3 12.3 C 3.2 km/h
560 07-10-2020 22:35:00 12.2 C 8.96 g/m*3 12.2 C 3.2 km/h
561 07-10-2020 22:40:00 12.2 C 8.96 g/m*3 12.2 C 4.8 km/h
562 07-10-2020 22:45:00 12.1 C 8.9 g/m*3 12.1 C 3.2 km/h
563 07-10-2020 22:50:00 12 C 8.85 g/m*3 12 C 6.4 km/h
564 07-10-2020 22:55:00 11.9 C 8.9 g/m*3 11.9 C 6.4 km/h
565 07-10-2020 23:00:00 11.9 C 8.9 g/m*3 11.9 C 6.4 km/h
566 07-10-2020 23:05:00 11.9 C 8.9 g/m*3 11.9 C 3.2 km/h
567 07-10-2020 23:10:00 11.8 C 8.95 g/m*3 11.8 C 3.2 km/h
568 07-10-2020 23:15:00 11.8 C 8.95 g/m*3 11.8 C 1.6 km/h
569 07-10-2020 23:20:00 11.8 C 8.95 g/m*3 11.8 C 1.6 km/h
570 07-10-2020 23:25:00 11.8 C 8.95 g/m*3 11.8 C 0 km/h
571 07-10-2020 23:30:00 11.7 C 8.89 g/m*3 11.7 C 1.6 km/h
572 07-10-2020 23:35:00 11.6 C 8.83 g/m*3 11.6 C 3.2 km/h
573 07-10-2020 23:40:00 11.5 C 8.78 g/m*3 11.5 C 3.2 km/h
574 07-10-2020 23:45:00 11.3 C 8.67 g/m*3 11.3 C 1.6 km/h
575 07-10-2020 23:50:00 11.2 C 8.72 g/m*3 11.2 C 1.6 km/h
Sensor: Nr:Datum:Temp:Abs-Feuchte:Windchill:Wind:
Aussen-T/F 576 07-10-2020 23:55:00 11.1 C 8.66 g/m*3 11.1 C 3.2 km/h
577 08-10-2020 00:00:00 10.9 C 8.55 g/m*3 10.9 C 3.2 km/h
578 08-10-2020 00:05:00 10.7 C 8.55 g/m*3 10.7 C 3.2 km/h
579 08-10-2020 00:10:00 10.6 C 8.49 g/m*3 10.6 C 3.2 km/h
580 08-10-2020 00:15:00 10.5 C 8.53 g/m*3 10.5 C 3.2 km/h
581 08-10-2020 00:20:00 10.4 C 8.48 g/m*3 10.4 C 3.2 km/h
582 08-10-2020 00:25:00 10.3 C 8.52 g/m*3 8.78 C 11.3 km/h
583 08-10-2020 00:30:00 10.3 C 8.52 g/m*3 10.3 C 4.8 km/h
584 08-10-2020 00:35:00 10.3 C 8.52 g/m*3 10.3 C 1.6 km/h
585 08-10-2020 00:40:00 10.2 C 8.47 g/m*3 10.2 C 4.8 km/h
586 08-10-2020 00:45:00 10.2 C 8.47 g/m*3 10.2 C 0 km/h
587 08-10-2020 00:50:00 10.1 C 8.42 g/m*3 10.1 C 3.2 km/h
588 08-10-2020 00:55:00 10 C 8.36 g/m*3 10 C 3.2 km/h
589 08-10-2020 01:00:00 9.9 C 8.31 g/m*3 9.9 C 0 km/h
590 08-10-2020 01:05:00 9.8 C 8.35 g/m*3 9.8 C 3.2 km/h
591 08-10-2020 01:10:00 9.7 C 8.3 g/m*3 9.7 C 3.2 km/h
592 08-10-2020 01:15:00 9.6 C 8.24 g/m*3 8.91 C 6.4 km/h
593 08-10-2020 01:20:00 9.5 C 8.28 g/m*3 9.5 C 1.6 km/h
594 08-10-2020 01:25:00 9.4 C 8.23 g/m*3 9.4 C 3.2 km/h
595 08-10-2020 01:30:00 9.4 C 8.23 g/m*3 9.4 C 1.6 km/h
596 08-10-2020 01:35:00 9.3 C 8.18 g/m*3 9.3 C 0 km/h
597 08-10-2020 01:40:00 9.2 C 8.13 g/m*3 9.2 C 0 km/h
598 08-10-2020 01:45:00 9.2 C 8.13 g/m*3 9.2 C 0 km/h
599 08-10-2020 01:50:00 9.2 C 8.22 g/m*3 9.2 C 0 km/h
600 08-10-2020 01:55:00 9.1 C 8.16 g/m*3 9.1 C 0 km/h
Sensor: Nr:Datum:Temp:Abs-Feuchte:Windchill:Wind:
Aussen-T/F 601 08-10-2020 02:00:00 9.1 C 8.16 g/m*3 9.1 C 0 km/h
602 08-10-2020 02:05:00 9.1 C 8.16 g/m*3 9.1 C 0 km/h
603 08-10-2020 02:10:00 9.1 C 8.16 g/m*3 9.1 C 0 km/h
604 08-10-2020 02:15:00 9.1 C 8.16 g/m*3 9.1 C 0 km/h
605 08-10-2020 02:20:00 9 C 8.11 g/m*3 9 C 0 km/h
606 08-10-2020 02:25:00 9 C 8.11 g/m*3 9 C 0 km/h
607 08-10-2020 02:30:00 8.9 C 8.15 g/m*3 8.9 C 0 km/h
608 08-10-2020 02:35:00 8.8 C 8.01 g/m*3 8.8 C 0 km/h
609 08-10-2020 02:40:00 8.8 C 8.01 g/m*3 8.8 C 0 km/h
610 08-10-2020 02:45:00 8.7 C 7.96 g/m*3 8.7 C 0 km/h
611 08-10-2020 02:50:00 8.6 C 7.91 g/m*3 8.6 C 3.2 km/h
612 08-10-2020 02:55:00 8.5 C 7.94 g/m*3 8.5 C 3.2 km/h
613 08-10-2020 03:00:00 8.5 C 7.94 g/m*3 8.5 C 1.6 km/h
614 08-10-2020 03:05:00 8.4 C 7.89 g/m*3 8.4 C 1.6 km/h
615 08-10-2020 03:10:00 8.4 C 7.89 g/m*3 8.4 C 1.6 km/h
616 08-10-2020 03:15:00 8.4 C 7.89 g/m*3 8.4 C 1.6 km/h
617 08-10-2020 03:20:00 8.3 C 7.84 g/m*3 8.3 C 0 km/h
618 08-10-2020 03:25:00 8.3 C 7.84 g/m*3 8.3 C 0 km/h
619 08-10-2020 03:30:00 8.3 C 7.84 g/m*3 8.3 C 0 km/h
620 08-10-2020 03:35:00 8.2 C 7.79 g/m*3 8.2 C 0 km/h
621 08-10-2020 03:40:00 8.2 C 7.87 g/m*3 8.2 C 0 km/h
622 08-10-2020 03:45:00 8.3 C 7.92 g/m*3 8.3 C 0 km/h
623 08-10-2020 03:50:00 8.3 C 7.92 g/m*3 8.3 C 0 km/h
624 08-10-2020 03:55:00 8.3 C 7.92 g/m*3 8.3 C 0 km/h
625 08-10-2020 04:00:00 8.3 C 7.92 g/m*3 8.3 C 0 km/h
Sensor: Nr:Datum:Temp:Abs-Feuchte:Windchill:Wind:
Aussen-T/F 626 08-10-2020 04:05:00 8.3 C 7.92 g/m*3 8.3 C 0 km/h
627 08-10-2020 04:10:00 8.3 C 7.92 g/m*3 8.3 C 0 km/h
628 08-10-2020 04:15:00 8.4 C 7.97 g/m*3 8.4 C 0 km/h
629 08-10-2020 04:20:00 8.4 C 8.06 g/m*3 8.4 C 0 km/h
630 08-10-2020 04:25:00 8.4 C 8.06 g/m*3 8.4 C 0 km/h
631 08-10-2020 04:30:00 8.5 C 8.11 g/m*3 8.5 C 0 km/h
632 08-10-2020 04:35:00 8.5 C 8.11 g/m*3 8.5 C 0 km/h
633 08-10-2020 04:40:00 8.6 C 8.16 g/m*3 8.6 C 0 km/h
634 08-10-2020 04:45:00 8.6 C 8.16 g/m*3 8.6 C 0 km/h
635 08-10-2020 04:50:00 8.6 C 8.16 g/m*3 8.6 C 0 km/h
636 08-10-2020 04:55:00 8.7 C 8.22 g/m*3 8.7 C 0 km/h
637 08-10-2020 05:00:00 8.7 C 8.22 g/m*3 8.7 C 0 km/h
638 08-10-2020 05:05:00 8.8 C 8.27 g/m*3 8.8 C 0 km/h
639 08-10-2020 05:10:00 8.8 C 8.27 g/m*3 8.8 C 0 km/h
640 08-10-2020 05:15:00 8.9 C 8.32 g/m*3 8.9 C 1.6 km/h
641 08-10-2020 05:20:00 9 C 8.38 g/m*3 9 C 1.6 km/h
642 08-10-2020 05:25:00 9.1 C 8.43 g/m*3 9.1 C 0 km/h
643 08-10-2020 05:30:00 9.2 C 8.57 g/m*3 9.2 C 0 km/h
644 08-10-2020 05:35:00 9.2 C 8.48 g/m*3 9.2 C 0 km/h
645 08-10-2020 05:40:00 9.2 C 8.48 g/m*3 9.2 C 0 km/h
646 08-10-2020 05:45:00 9.3 C 8.54 g/m*3 9.3 C 0 km/h
647 08-10-2020 05:50:00 9.3 C 8.54 g/m*3 9.3 C 0 km/h
648 08-10-2020 05:55:00 9.3 C 8.54 g/m*3 9.3 C 0 km/h
649 08-10-2020 06:00:00 9.4 C 8.59 g/m*3 9.4 C 0 km/h
650 08-10-2020 06:05:00 9.4 C 8.59 g/m*3 9.4 C 0 km/h
Sensor: Nr:Datum:Temp:Abs-Feuchte:Windchill:Wind:
Aussen-T/F 651 08-10-2020 06:10:00 9.5 C 8.74 g/m*3 9.5 C 0 km/h
652 08-10-2020 06:15:00 9.6 C 8.79 g/m*3 9.6 C 0 km/h
653 08-10-2020 06:20:00 9.7 C 8.85 g/m*3 9.7 C 0 km/h
654 08-10-2020 06:25:00 9.7 C 8.85 g/m*3 9.7 C 0 km/h
655 08-10-2020 06:30:00 9.7 C 8.85 g/m*3 9.7 C 0 km/h
656 08-10-2020 06:35:00 9.8 C 8.91 g/m*3 9.8 C 0 km/h
657 08-10-2020 06:40:00 9.8 C 8.91 g/m*3 9.8 C 0 km/h
658 08-10-2020 06:45:00 9.8 C 8.91 g/m*3 9.8 C 0 km/h
659 08-10-2020 06:50:00 9.8 C 8.91 g/m*3 9.8 C 0 km/h
660 08-10-2020 06:55:00 9.8 C 8.91 g/m*3 9.8 C 0 km/h
661 08-10-2020 07:00:00 9.9 C 8.96 g/m*3 9.9 C 0 km/h
662 08-10-2020 07:05:00 9.9 C 8.96 g/m*3 9.9 C 0 km/h
663 08-10-2020 07:10:00 9.9 C 8.96 g/m*3 9.9 C 0 km/h
664 08-10-2020 07:15:00 9.9 C 8.96 g/m*3 9.9 C 0 km/h
665 08-10-2020 07:20:00 9.9 C 8.96 g/m*3 9.9 C 0 km/h
666 08-10-2020 07:25:00 10 C 9.02 g/m*3 10 C 0 km/h
667 08-10-2020 07:30:00 10.1 C 9.08 g/m*3 10.1 C 0 km/h
668 08-10-2020 07:35:00 10.1 C 9.08 g/m*3 10.1 C 0 km/h
669 08-10-2020 07:40:00 10.1 C 9.08 g/m*3 10.1 C 0 km/h
670 08-10-2020 07:45:00 10.1 C 9.08 g/m*3 10.1 C 0 km/h
671 08-10-2020 07:50:00 10.1 C 9.08 g/m*3 10.1 C 0 km/h
672 08-10-2020 07:55:00 10.2 C 9.14 g/m*3 10.2 C 0 km/h
673 08-10-2020 08:00:00 10.3 C 9.19 g/m*3 10.3 C 0 km/h
674 08-10-2020 08:05:00 10.3 C 9.19 g/m*3 10.3 C 0 km/h
675 08-10-2020 08:10:00 10.4 C 9.25 g/m*3 10.4 C 1.6 km/h
Sensor: Nr:Datum:Temp:Abs-Feuchte:Windchill:Wind:
Aussen-T/F 676 08-10-2020 08:15:00 10.5 C 9.31 g/m*3 10.5 C 1.6 km/h
677 08-10-2020 08:20:00 10.6 C 9.37 g/m*3 10.6 C 0 km/h
678 08-10-2020 08:25:00 10.6 C 9.37 g/m*3 10.6 C 0 km/h
679 08-10-2020 08:30:00 10.8 C 9.59 g/m*3 10.8 C 1.6 km/h
680 08-10-2020 08:35:00 10.9 C 9.65 g/m*3 10.9 C 0 km/h
681 08-10-2020 08:40:00 11 C 9.71 g/m*3 11 C 0 km/h
682 08-10-2020 08:45:00 11.2 C 9.83 g/m*3 11.2 C 0 km/h
683 08-10-2020 08:50:00 11.3 C 9.89 g/m*3 11.3 C 0 km/h
684 08-10-2020 08:55:00 11.3 C 9.89 g/m*3 11.3 C 4.8 km/h
685 08-10-2020 09:00:00 11.4 C 9.96 g/m*3 11.4 C 0 km/h
686 08-10-2020 09:05:00 11.5 C 10.02 g/m*3 11.5 C 0 km/h
687 08-10-2020 09:10:00 11.6 C 10.08 g/m*3 11.6 C 1.6 km/h
688 08-10-2020 09:15:00 11.7 C 10.15 g/m*3 11.7 C 1.6 km/h
689 08-10-2020 09:20:00 11.7 C 10.15 g/m*3 11.7 C 1.6 km/h
690 08-10-2020 09:25:00 11.8 C 10.21 g/m*3 11.8 C 4.8 km/h
691 08-10-2020 09:30:00 11.9 C 10.27 g/m*3 11.9 C 6.4 km/h
692 08-10-2020 09:35:00 11.9 C 10.27 g/m*3 11.9 C 8.1 km/h
693 08-10-2020 09:40:00 12 C 10.34 g/m*3 12 C 9.7 km/h
694 08-10-2020 09:45:00 12.1 C 10.4 g/m*3 12.1 C 6.4 km/h
695 08-10-2020 09:50:00 12.2 C 10.47 g/m*3 12.2 C 3.2 km/h
696 08-10-2020 09:55:00 12.2 C 10.47 g/m*3 12.2 C 8.1 km/h
697 08-10-2020 10:00:00 12.3 C 10.53 g/m*3 12.3 C 3.2 km/h
698 08-10-2020 10:05:00 12.3 C 10.53 g/m*3 12.3 C 3.2 km/h
699 08-10-2020 10:10:00 12.3 C 10.53 g/m*3 12.3 C 0 km/h
700 08-10-2020 10:15:00 12.4 C 10.6 g/m*3 12.4 C 1.6 km/h
Sensor: Nr:Datum:Temp:Abs-Feuchte:Windchill:Wind:
Aussen-T/F 701 08-10-2020 10:20:00 12.5 C 10.66 g/m*3 12.5 C 0 km/h
702 08-10-2020 10:25:00 12.6 C 10.73 g/m*3 12.6 C 1.6 km/h
703 08-10-2020 10:30:00 12.7 C 10.8 g/m*3 12.7 C 8.1 km/h
704 08-10-2020 10:35:00 12.6 C 10.62 g/m*3 12.6 C 11.3 km/h
705 08-10-2020 10:40:00 12.7 C 10.69 g/m*3 12.7 C 8.1 km/h
706 08-10-2020 10:45:00 12.8 C 10.87 g/m*3 12.8 C 1.6 km/h
707 08-10-2020 10:50:00 12.9 C 10.93 g/m*3 12.9 C 0 km/h
708 08-10-2020 10:55:00 13 C 10.89 g/m*3 13 C 3.2 km/h
709 08-10-2020 11:00:00 13.2 C 11.14 g/m*3 13.2 C 1.6 km/h
710 08-10-2020 11:05:00 13.3 C 11.09 g/m*3 13.3 C 0 km/h
711 08-10-2020 11:10:00 13.4 C 11.28 g/m*3 13.4 C 0 km/h
712 08-10-2020 11:15:00 13.6 C 11.3 g/m*3 13.6 C 9.7 km/h
713 08-10-2020 11:20:00 13.6 C 11.18 g/m*3 13.6 C 8.1 km/h
714 08-10-2020 11:25:00 13.7 C 11.25 g/m*3 13.7 C 8.1 km/h
715 08-10-2020 11:30:00 13.8 C 11.2 g/m*3 13.8 C 4.8 km/h
716 08-10-2020 11:35:00 13.8 C 11.08 g/m*3 13.8 C 12.9 km/h
717 08-10-2020 11:40:00 14.1 C 11.29 g/m*3 14.1 C 14.5 km/h
718 08-10-2020 11:45:00 14.3 C 11.3 g/m*3 14.3 C 20.9 km/h
719 08-10-2020 11:50:00 14.6 C 11.26 g/m*3 14.6 C 16.1 km/h
720 08-10-2020 11:55:00 14.8 C 11.4 g/m*3 14.8 C 12.9 km/h
721 08-10-2020 12:00:00 14.9 C 11.34 g/m*3 14.9 C 17.7 km/h
722 08-10-2020 12:05:00 14.9 C 11.34 g/m*3 14.9 C 11.3 km/h
723 08-10-2020 12:10:00 15 C 11.28 g/m*3 15 C 19.3 km/h
724 08-10-2020 12:15:00 15.1 C 11.22 g/m*3 15.1 C 22.5 km/h
725 08-10-2020 12:20:00 15.3 C 11.23 g/m*3 15.3 C 19.3 km/h
Sensor: Nr:Datum:Temp:Abs-Feuchte:Windchill:Wind:
Aussen-T/F 726 08-10-2020 12:25:00 15.3 C 11.23 g/m*3 15.3 C 20.9 km/h
727 08-10-2020 12:30:00 15.4 C 11.3 g/m*3 15.4 C 14.5 km/h
728 08-10-2020 12:35:00 15.6 C 11.3 g/m*3 15.6 C 16.1 km/h
729 08-10-2020 12:40:00 15.6 C 11.3 g/m*3 15.6 C 14.5 km/h
730 08-10-2020 12:45:00 15.6 C 11.17 g/m*3 15.6 C 17.7 km/h
731 08-10-2020 12:50:00 15.6 C 11.3 g/m*3 15.6 C 27.4 km/h
732 08-10-2020 12:55:00 15.7 C 11.24 g/m*3 15.7 C 27.4 km/h
733 08-10-2020 13:00:00 15.8 C 11.31 g/m*3 15.8 C 17.7 km/h
734 08-10-2020 13:05:00 15.8 C 11.31 g/m*3 15.8 C 24.1 km/h
735 08-10-2020 13:10:00 15.8 C 11.17 g/m*3 15.8 C 35.4 km/h
736 08-10-2020 13:15:00 15.9 C 11.24 g/m*3 15.9 C 27.4 km/h
737 08-10-2020 13:20:00 15.9 C 11.24 g/m*3 15.9 C 24.1 km/h
738 08-10-2020 13:25:00 15.9 C 11.24 g/m*3 15.9 C 24.1 km/h
739 08-10-2020 13:30:00 15.9 C 11.38 g/m*3 15.9 C 29 km/h
740 08-10-2020 13:35:00 15.8 C 11.31 g/m*3 15.8 C 27.4 km/h
741 08-10-2020 13:40:00 15.8 C 11.31 g/m*3 15.8 C 27.4 km/h
742 08-10-2020 13:45:00 15.8 C 11.31 g/m*3 15.8 C 20.9 km/h
743 08-10-2020 13:50:00 15.7 C 11.24 g/m*3 15.7 C 19.3 km/h
744 08-10-2020 13:55:00 15.8 C 11.31 g/m*3 15.8 C 24.1 km/h
745 08-10-2020 14:00:00 15.8 C 11.31 g/m*3 15.8 C 20.9 km/h
746 08-10-2020 14:05:00 15.9 C 11.38 g/m*3 15.9 C 20.9 km/h
747 08-10-2020 14:10:00 16 C 11.44 g/m*3 16 C 19.3 km/h
748 08-10-2020 14:15:00 16.1 C 11.38 g/m*3 16.1 C 19.3 km/h
749 08-10-2020 14:20:00 16.1 C 11.38 g/m*3 16.1 C 16.1 km/h
750 08-10-2020 14:25:00 16.2 C 11.45 g/m*3 16.2 C 14.5 km/h
Sensor: Nr:Datum:Temp:Abs-Feuchte:Windchill:Wind:
Aussen-T/F 751 08-10-2020 14:30:00 16.4 C 11.58 g/m*3 16.4 C 12.9 km/h
752 08-10-2020 14:35:00 16.5 C 11.51 g/m*3 16.5 C 19.3 km/h
753 08-10-2020 14:40:00 16.4 C 11.45 g/m*3 16.4 C 12.9 km/h
754 08-10-2020 14:45:00 16.3 C 11.24 g/m*3 16.3 C 24.1 km/h
755 08-10-2020 14:50:00 16.1 C 11.24 g/m*3 16.1 C 16.1 km/h
756 08-10-2020 14:55:00 16 C 11.17 g/m*3 16 C 16.1 km/h
757 08-10-2020 15:00:00 16.2 C 11.31 g/m*3 16.2 C 14.5 km/h
758 08-10-2020 15:05:00 16.3 C 11.24 g/m*3 16.3 C 16.1 km/h
759 08-10-2020 15:10:00 16.4 C 11.31 g/m*3 16.4 C 22.5 km/h
760 08-10-2020 15:15:00 16.5 C 11.23 g/m*3 16.5 C 19.3 km/h
761 08-10-2020 15:20:00 16.4 C 11.31 g/m*3 16.4 C 17.7 km/h
762 08-10-2020 15:25:00 16.3 C 11.24 g/m*3 16.3 C 20.9 km/h
763 08-10-2020 15:30:00 16.3 C 11.38 g/m*3 16.3 C 12.9 km/h
764 08-10-2020 15:35:00 16.3 C 11.38 g/m*3 16.3 C 12.9 km/h
765 08-10-2020 15:40:00 16.4 C 11.45 g/m*3 16.4 C 24.1 km/h
766 08-10-2020 15:45:00 16.5 C 11.51 g/m*3 16.5 C 14.5 km/h
767 08-10-2020 15:50:00 16.7 C 11.51 g/m*3 16.7 C 20.9 km/h
768 08-10-2020 15:55:00 16.8 C 11.58 g/m*3 16.8 C 22.5 km/h
769 08-10-2020 16:00:00 16.8 C 11.58 g/m*3 16.8 C 16.1 km/h
770 08-10-2020 16:05:00 16.7 C 11.51 g/m*3 16.7 C 16.1 km/h
771 08-10-2020 16:10:00 16.6 C 11.44 g/m*3 16.6 C 14.5 km/h
772 08-10-2020 16:15:00 16.4 C 11.45 g/m*3 16.4 C 20.9 km/h
773 08-10-2020 16:20:00 16.3 C 11.38 g/m*3 16.3 C 22.5 km/h
774 08-10-2020 16:25:00 16.2 C 11.45 g/m*3 16.2 C 14.5 km/h
775 08-10-2020 16:30:00 16.2 C 11.45 g/m*3 16.2 C 17.7 km/h
Sensor: Nr:Datum:Temp:Abs-Feuchte:Windchill:Wind:
Aussen-T/F 776 08-10-2020 16:35:00 16.2 C 11.45 g/m*3 16.2 C 14.5 km/h
777 08-10-2020 16:40:00 16.3 C 11.52 g/m*3 16.3 C 19.3 km/h
778 08-10-2020 16:45:00 16.3 C 11.52 g/m*3 16.3 C 19.3 km/h
779 08-10-2020 16:50:00 16.3 C 11.52 g/m*3 16.3 C 16.1 km/h
780 08-10-2020 16:55:00 16.4 C 11.58 g/m*3 16.4 C 17.7 km/h
781 08-10-2020 17:00:00 16.4 C 11.45 g/m*3 16.4 C 19.3 km/h
782 08-10-2020 17:05:00 16.4 C 11.45 g/m*3 16.4 C 12.9 km/h
783 08-10-2020 17:10:00 16.5 C 11.51 g/m*3 16.5 C 17.7 km/h
784 08-10-2020 17:15:00 16.5 C 11.51 g/m*3 16.5 C 11.3 km/h
785 08-10-2020 17:20:00 16.5 C 11.37 g/m*3 16.5 C 14.5 km/h
786 08-10-2020 17:25:00 16.5 C 11.37 g/m*3 16.5 C 12.9 km/h
787 08-10-2020 17:30:00 16.6 C 11.44 g/m*3 16.6 C 9.7 km/h
788 08-10-2020 17:35:00 16.6 C 11.44 g/m*3 16.6 C 14.5 km/h
789 08-10-2020 17:40:00 16.6 C 11.58 g/m*3 16.6 C 6.4 km/h
790 08-10-2020 17:45:00 16.6 C 11.44 g/m*3 16.6 C 11.3 km/h
791 08-10-2020 17:50:00 16.6 C 11.44 g/m*3 16.6 C 6.4 km/h
792 08-10-2020 17:55:00 16.6 C 11.58 g/m*3 16.6 C 4.8 km/h
793 08-10-2020 18:00:00 16.6 C 11.44 g/m*3 16.6 C 11.3 km/h
794 08-10-2020 18:05:00 16.6 C 11.44 g/m*3 16.6 C 6.4 km/h
795 08-10-2020 18:10:00 16.6 C 11.44 g/m*3 16.6 C 6.4 km/h
796 08-10-2020 18:15:00 16.6 C 11.44 g/m*3 16.6 C 12.9 km/h
797 08-10-2020 18:20:00 16.6 C 11.44 g/m*3 16.6 C 11.3 km/h
798 08-10-2020 18:25:00 16.6 C 11.58 g/m*3 16.6 C 9.7 km/h
799 08-10-2020 18:30:00 16.5 C 11.37 g/m*3 16.5 C 11.3 km/h
800 08-10-2020 18:35:00 16.5 C 11.51 g/m*3 16.5 C 14.5 km/h
Sensor: Nr:Datum:Temp:Abs-Feuchte:Windchill:Wind:
Aussen-T/F 801 08-10-2020 18:40:00 16.5 C 11.37 g/m*3 16.5 C 12.9 km/h
802 08-10-2020 18:45:00 16.4 C 11.45 g/m*3 16.4 C 12.9 km/h
803 08-10-2020 18:50:00 16.4 C 11.45 g/m*3 16.4 C 9.7 km/h
804 08-10-2020 18:55:00 16.4 C 11.45 g/m*3 16.4 C 19.3 km/h
805 08-10-2020 19:00:00 16.4 C 11.45 g/m*3 16.4 C 17.7 km/h
806 08-10-2020 19:05:00 16.3 C 11.38 g/m*3 16.3 C 17.7 km/h
807 08-10-2020 19:10:00 16.3 C 11.38 g/m*3 16.3 C 16.1 km/h
808 08-10-2020 19:15:00 16.3 C 11.38 g/m*3 16.3 C 9.7 km/h
809 08-10-2020 19:20:00 16.3 C 11.38 g/m*3 16.3 C 12.9 km/h
810 08-10-2020 19:25:00 16.3 C 11.38 g/m*3 16.3 C 20.9 km/h
811 08-10-2020 19:30:00 16.3 C 11.38 g/m*3 16.3 C 11.3 km/h
812 08-10-2020 19:35:00 16.3 C 11.38 g/m*3 16.3 C 14.5 km/h
813 08-10-2020 19:40:00 16.3 C 11.38 g/m*3 16.3 C 22.5 km/h
814 08-10-2020 19:45:00 16.3 C 11.38 g/m*3 16.3 C 16.1 km/h
815 08-10-2020 19:50:00 16.3 C 11.52 g/m*3 16.3 C 27.4 km/h
816 08-10-2020 19:55:00 16.3 C 11.52 g/m*3 16.3 C 14.5 km/h
817 08-10-2020 20:00:00 16.3 C 11.52 g/m*3 16.3 C 14.5 km/h
818 08-10-2020 20:05:00 16.3 C 11.52 g/m*3 16.3 C 19.3 km/h
819 08-10-2020 20:10:00 16.3 C 11.52 g/m*3 16.3 C 25.7 km/h
820 08-10-2020 20:15:00 16.3 C 11.52 g/m*3 16.3 C 19.3 km/h
821 08-10-2020 20:20:00 16.3 C 11.52 g/m*3 16.3 C 24.1 km/h
822 08-10-2020 20:25:00 16.3 C 11.52 g/m*3 16.3 C 19.3 km/h
823 08-10-2020 20:30:00 16.3 C 11.52 g/m*3 16.3 C 24.1 km/h
824 08-10-2020 20:35:00 16.3 C 11.52 g/m*3 16.3 C 16.1 km/h
825 08-10-2020 20:40:00 16.3 C 11.65 g/m*3 16.3 C 16.1 km/h
Sensor: Nr:Datum:Temp:Abs-Feuchte:Windchill:Wind:
Aussen-T/F 826 08-10-2020 20:45:00 16.3 C 11.65 g/m*3 16.3 C 11.3 km/h
827 08-10-2020 20:50:00 16.3 C 11.65 g/m*3 16.3 C 25.7 km/h
828 08-10-2020 20:55:00 16.2 C 11.72 g/m*3 16.2 C 25.7 km/h
829 08-10-2020 21:00:00 16.2 C 11.72 g/m*3 16.2 C 14.5 km/h
830 08-10-2020 21:05:00 16.1 C 11.65 g/m*3 16.1 C 17.7 km/h
831 08-10-2020 21:10:00 16.1 C 11.65 g/m*3 16.1 C 17.7 km/h
832 08-10-2020 21:15:00 16.1 C 11.65 g/m*3 16.1 C 11.3 km/h
833 08-10-2020 21:20:00 16.1 C 11.65 g/m*3 16.1 C 19.3 km/h
834 08-10-2020 21:25:00 16.2 C 11.72 g/m*3 16.2 C 22.5 km/h
835 08-10-2020 21:30:00 16.2 C 11.72 g/m*3 16.2 C 24.1 km/h
836 08-10-2020 21:35:00 16.3 C 11.79 g/m*3 16.3 C 11.3 km/h
837 08-10-2020 21:40:00 16.3 C 11.79 g/m*3 16.3 C 22.5 km/h
838 08-10-2020 21:45:00 16.4 C 11.86 g/m*3 16.4 C 17.7 km/h
839 08-10-2020 21:50:00 16.4 C 11.72 g/m*3 16.4 C 11.3 km/h
840 08-10-2020 21:55:00 16.4 C 11.72 g/m*3 16.4 C 19.3 km/h
841 08-10-2020 22:00:00 16.5 C 11.8 g/m*3 16.5 C 22.5 km/h
842 08-10-2020 22:05:00 16.5 C 11.8 g/m*3 16.5 C 22.5 km/h
843 08-10-2020 22:10:00 16.5 C 11.8 g/m*3 16.5 C 20.9 km/h
844 08-10-2020 22:15:00 16.4 C 11.72 g/m*3 16.4 C 16.1 km/h
845 08-10-2020 22:20:00 16.5 C 11.8 g/m*3 16.5 C 20.9 km/h
846 08-10-2020 22:25:00 16.5 C 11.8 g/m*3 16.5 C 16.1 km/h
847 08-10-2020 22:30:00 16.5 C 11.8 g/m*3 16.5 C 25.7 km/h
848 08-10-2020 22:35:00 16.5 C 11.8 g/m*3 16.5 C 20.9 km/h
849 08-10-2020 22:40:00 16.5 C 11.8 g/m*3 16.5 C 19.3 km/h
850 08-10-2020 22:45:00 16.4 C 11.72 g/m*3 16.4 C 16.1 km/h
Sensor: Nr:Datum:Temp:Abs-Feuchte:Windchill:Wind:
Aussen-T/F 851 08-10-2020 22:50:00 16.4 C 11.72 g/m*3 16.4 C 24.1 km/h
852 08-10-2020 22:55:00 16.4 C 11.86 g/m*3 16.4 C 14.5 km/h
853 08-10-2020 23:00:00 16.3 C 11.79 g/m*3 16.3 C 16.1 km/h
854 08-10-2020 23:05:00 16.3 C 11.79 g/m*3 16.3 C 29 km/h
855 08-10-2020 23:10:00 16.3 C 11.79 g/m*3 16.3 C 16.1 km/h
856 08-10-2020 23:15:00 16.2 C 11.86 g/m*3 16.2 C 22.5 km/h
857 08-10-2020 23:20:00 16.2 C 11.86 g/m*3 16.2 C 19.3 km/h
858 08-10-2020 23:25:00 16.3 C 11.93 g/m*3 16.3 C 19.3 km/h
859 08-10-2020 23:30:00 16.3 C 11.79 g/m*3 16.3 C 12.9 km/h
860 08-10-2020 23:35:00 16.3 C 11.79 g/m*3 16.3 C 24.1 km/h
861 08-10-2020 23:40:00 16.3 C 11.79 g/m*3 16.3 C 14.5 km/h
862 08-10-2020 23:45:00 16.3 C 11.79 g/m*3 16.3 C 17.7 km/h
863 08-10-2020 23:50:00 16.3 C 11.79 g/m*3 16.3 C 14.5 km/h
864 08-10-2020 23:55:00 16.3 C 11.79 g/m*3 16.3 C 19.3 km/h

Legende:
   Min
   Max


Maximal/Minimal-Werte vom 06.10.2020 - 08.10.2020

Sensor Min Max Avg
Temp
(Aussen-T/F)
8.2 °C
08-10-2020  03:35:00
16.8 °C
08-10-2020  15:55:00
13.19 °C
Abs-Feuchte
(Aussen-T/F)
7.79 g/m*3
08-10-2020  03:35:00
11.93 g/m*3
08-10-2020  23:25:00
9.92 g/m*3
Windchill
(Aussen-T/F)
8.2 C
08-10-2020  03:35:00
16.8 C
08-10-2020  15:55:00
13.17 C

Die Daten stammen von einer Davis Vantage Pro 2 Wetter-Station und werden unter Linux mit der Software wview2wettercgi und aufbereitet. Alle Angaben erfolgen ohne Gewähr für ihre Vollständigkeit oder Richtigkeit.
Kontakt: Rainer Krienke krienke@uni-koblenz.de . Meine Webseiten an der Uni Koblenz oder privat.
Version: $Revision: 0.78 $